| time (UTC) | temp F | wind direction | speed MPH | gust MPH | rain 1hr in | rain 24hr in | rain mn in | humidity % | barometer mb |
| 20260509135401 | 34 | 0 | 0.0 | 0.0 | 0.00 | 0.04 | 0.01 | 93 | 992.0 |
| 20260509133857 | 34 | 0 | 0.0 | 0.0 | 0.00 | 0.04 | 0.01 | 93 | 992.1 |
| 20260509132353 | 34 | 0 | 0.0 | 0.0 | 0.00 | 0.04 | 0.01 | 93 | 992.4 |
| 20260509130849 | 34 | 0 | 0.0 | 0.0 | 0.01 | 0.04 | 0.01 | 93 | 992.6 |
| 20260509125345 | 34 | 0 | 0.0 | 0.0 | 0.01 | 0.04 | 0.01 | 93 | 992.7 |
| 20260509123839 | 34 | 0 | 0.0 | 0.0 | 0.01 | 0.04 | 0.01 | 93 | 992.9 |
| 20260509120829 | 35 | 0 | 0.0 | 0.0 | 0.00 | 0.03 | 0.00 | 93 | 993.4 |
| 20260509115325 | 35 | 0 | 0.0 | 0.0 | 0.00 | 0.03 | 0.00 | 93 | 993.6 |
| 20260509113819 | 35 | 0 | 0.0 | 0.0 | 0.00 | 0.03 | 0.00 | 93 | 993.7 |
| 20260509112315 | 36 | 0 | 0.0 | 0.0 | 0.00 | 0.03 | 0.00 | 93 | 994.0 |
| 20260509110811 | 36 | 0 | 0.0 | 0.0 | 0.00 | 0.03 | 0.00 | 93 | 994.2 |
| 20260509105307 | 36 | 0 | 0.0 | 0.0 | 0.00 | 0.03 | 0.00 | 92 | 994.5 |
| 20260509103803 | 36 | 0 | 0.0 | 0.0 | 0.00 | 0.03 | 0.00 | 92 | 994.7 |
| 20260509102259 | 36 | 0 | 0.0 | 0.0 | 0.00 | 0.03 | 0.00 | 92 | 994.9 |
| 20260509100755 | 36 | 0 | 0.0 | 0.0 | 0.00 | 0.03 | 0.00 | 92 | 995.1 |
| 20260509095251 | 36 | 0 | 0.0 | 0.0 | 0.00 | 0.03 | 0.00 | 92 | 995.2 |
| 20260509093747 | 37 | 0 | 0.0 | 0.0 | 0.00 | 0.03 | 0.00 | 92 | 995.4 |
| 20260509092244 | 37 | 0 | 0.0 | 0.0 | 0.00 | 0.03 | 0.00 | 92 | 995.7 |
| 20260509090739 | 37 | 0 | 0.0 | 0.0 | 0.00 | 0.03 | 0.00 | 92 | 996.0 |
| 20260509085235 | 37 | 0 | 0.0 | 0.0 | 0.00 | 0.03 | 0.00 | 91 | 996.3 |
| 20260509083731 | 37 | 0 | 0.0 | 0.0 | 0.01 | 0.03 | 0.00 | 91 | 996.5 |
| 20260509082227 | 37 | 0 | 0.0 | 0.0 | 0.01 | 0.03 | 0.03 | 91 | 996.8 |
| 20260509080723 | 37 | 0 | 0.0 | 0.0 | 0.01 | 0.03 | 0.03 | 90 | 997.1 |
| 20260509075219 | 37 | 0 | 0.0 | 0.0 | 0.02 | 0.03 | 0.03 | 90 | 997.3 |
| 20260509073715 | 38 | 0 | 0.0 | 0.0 | 0.01 | 0.02 | 0.02 | 90 | 997.4 |
| 20260509072211 | 38 | 0 | 0.0 | 0.0 | 0.01 | 0.02 | 0.02 | 90 | 997.6 |
| 20260509070707 | 38 | 0 | 0.0 | 0.0 | 0.02 | 0.02 | 0.02 | 89 | 997.8 |
| 20260509065203 | 38 | 0 | 0.0 | 0.0 | 0.01 | 0.01 | 0.01 | 89 | 997.9 |
| 20260509063659 | 39 | 0 | 0.0 | 0.0 | 0.01 | 0.01 | 0.01 | 88 | 998.0 |
| 20260509062155 | 39 | 0 | 0.0 | 0.0 | 0.01 | 0.01 | 0.01 | 88 | 998.2 |
| 20260509060651 | 40 | 0 | 0.0 | 0.0 | 0.00 | 0.00 | 0.00 | 86 | 998.2 |
| 20260509055147 | 40 | 0 | 0.0 | 0.0 | 0.00 | 0.00 | 0.00 | 85 | 998.3 |
| 20260509053643 | 41 | 0 | 0.0 | 0.0 | 0.00 | 0.00 | 0.00 | 83 | 998.4 |
| 20260509052139 | 41 | 0 | 0.0 | 0.0 | 0.00 | 0.00 | 0.00 | 81 | 998.4 |
| 20260509050635 | 42 | 0 | 0.0 | 0.0 | 0.00 | 0.00 | 0.00 | 77 | 998.4 |
| 20260509045131 | 42 | 0 | 0.0 | 0.0 | 0.00 | 0.00 | 0.00 | 73 | 998.5 |
| 20260509043627 | 43 | 308 | 3.0 | 7.0 | 0.00 | 0.00 | 0.00 | 67 | 998.6 |
| 20260509042121 | 44 | 307 | 1.0 | 10.0 | 0.00 | 0.00 | 0.00 | 65 | 998.6 |
| 20260509035111 | 45 | 300 | 5.0 | 9.0 | 0.00 | 0.00 | 0.00 | 63 | 998.9 |
| 20260509033607 | 45 | 293 | 5.0 | 13.0 | 0.00 | 0.00 | 0.00 | 61 | 999.1 |
| 20260509032101 | 45 | 0 | 0.0 | 5.0 | 0.00 | 0.00 | 0.00 | 59 | 999.3 |
| 20260509030557 | 45 | 308 | 3.0 | 9.0 | 0.00 | 0.00 | 0.00 | 58 | 999.4 |
| 20260509025053 | 46 | 0 | 0.0 | 9.0 | 0.00 | 0.00 | 0.00 | 58 | 999.4 |
| 20260509023549 | 46 | 312 | 3.0 | 8.0 | 0.00 | 0.00 | 0.00 | 57 | 999.5 |
| 20260509022045 | 46 | 293 | 4.0 | 12.0 | 0.00 | 0.00 | 0.00 | 56 | 999.7 |
| 20260509020541 | 46 | 305 | 5.0 | 8.0 | 0.00 | 0.00 | 0.00 | 56 | 1000.0 |
| 20260509015033 | 47 | 287 | 6.0 | 10.0 | 0.00 | 0.00 | 0.00 | 55 | 1000.1 |
| 20260509012023 | 47 | 289 | 5.0 | 8.0 | 0.00 | 0.00 | 0.00 | 55 | 1000.5 |
| 20260509010519 | 47 | 316 | 2.0 | 11.0 | 0.00 | 0.00 | 0.00 | 55 | 1000.9 |
| 20260509005015 | 47 | 284 | 4.0 | 12.0 | 0.00 | 0.00 | 0.00 | 54 | 1001.0 |
| 20260509003511 | 46 | 339 | 1.0 | 7.0 | 0.00 | 0.00 | 0.00 | 54 | 1001.2 |
| 20260509002007 | 46 | 333 | 5.0 | 13.0 | 0.00 | 0.00 | 0.00 | 54 | 1001.5 |
| 20260509000501 | 47 | 277 | 4.0 | 10.0 | 0.00 | 0.00 | 0.00 | 50 | 1001.6 |
| 20260508234957 | 47 | 311 | 6.0 | 10.0 | 0.00 | 0.00 | 0.00 | 52 | 1001.8 |
| 20260508233453 | 47 | 308 | 6.0 | 11.0 | 0.00 | 0.00 | 0.00 | 50 | 1002.0 |
| 20260508231949 | 48 | 294 | 3.0 | 10.0 | 0.00 | 0.00 | 0.00 | 50 | 1002.0 |
| 20260508230443 | 47 | 313 | 4.0 | 11.0 | 0.00 | 0.00 | 0.00 | 51 | 1002.2 |
| 20260508223433 | 47 | 0 | 0.0 | 6.0 | 0.00 | 0.00 | 0.00 | 46 | 1002.5 |
| 20260508221929 | 47 | 326 | 3.0 | 9.0 | 0.00 | 0.00 | 0.00 | 46 | 1002.6 |
| 20260508220425 | 47 | 310 | 9.0 | 15.0 | 0.00 | 0.00 | 0.00 | 45 | 1002.8 |
| 20260508214921 | 48 | 295 | 9.0 | 14.0 | 0.00 | 0.00 | 0.00 | 45 | 1002.9 |
| 20260508213417 | 48 | 337 | 2.0 | 10.0 | 0.00 | 0.00 | 0.00 | 43 | 1003.1 |
| 20260508211913 | 47 | 293 | 1.0 | 6.0 | 0.00 | 0.00 | 0.00 | 48 | 1003.3 |
| 20260508210409 | 47 | 300 | 3.0 | 7.0 | 0.00 | 0.00 | 0.00 | 46 | 1003.5 |
| 20260508204903 | 46 | 0 | 0.0 | 5.0 | 0.00 | 0.00 | 0.00 | 47 | 1003.7 |
| 20260508203359 | 45 | 0 | 0.0 | 5.0 | 0.00 | 0.00 | 0.00 | 50 | 1004.1 |
| 20260508201855 | 45 | 276 | 4.0 | 9.0 | 0.00 | 0.00 | 0.00 | 51 | 1004.2 |
| 20260508200351 | 45 | 251 | 1.0 | 5.0 | 0.00 | 0.00 | 0.00 | 54 | 1004.2 |
| 20260508194847 | 45 | 319 | 1.0 | 6.0 | 0.00 | 0.00 | 0.00 | 55 | 1004.5 |
| 20260508193343 | 44 | 294 | 5.0 | 7.0 | 0.00 | 0.00 | 0.00 | 55 | 1004.6 |
| 20260508191839 | 44 | 0 | 0.0 | 6.0 | 0.00 | 0.00 | 0.00 | 57 | 1004.8 |
| 20260508190335 | 43 | 0 | 0.0 | 7.0 | 0.00 | 0.00 | 0.00 | 57 | 1005.1 |
| 20260508184831 | 43 | 294 | 1.0 | 10.0 | 0.00 | 0.00 | 0.00 | 58 | 1005.2 |
| 20260508183327 | 44 | 301 | 6.0 | 10.0 | 0.00 | 0.00 | 0.00 | 58 | 1005.4 |
| 20260508181823 | 44 | 299 | 6.0 | 11.0 | 0.00 | 0.00 | 0.00 | 59 | 1005.6 |
| 20260508180319 | 42 | 0 | 0.0 | 0.0 | 0.00 | 0.00 | 0.00 | 67 | 1005.8 |
| 20260508174815 | 40 | 314 | 1.0 | 3.0 | 0.00 | 0.00 | 0.00 | 69 | 1006.2 |
| 20260508173311 | 40 | 0 | 0.0 | 0.0 | 0.00 | 0.00 | 0.00 | 71 | 1006.3 |
| 20260508171807 | 40 | 0 | 0.0 | 0.0 | 0.00 | 0.00 | 0.00 | 72 | 1006.5 |
| 20260508170303 | 39 | 0 | 0.0 | 0.0 | 0.00 | 0.00 | 0.00 | 74 | 1006.7 |
| 20260508164759 | 39 | 0 | 0.0 | 3.0 | 0.00 | 0.00 | 0.00 | 75 | 1006.8 |
| 20260508163255 | 38 | 0 | 0.0 | 0.0 | 0.00 | 0.00 | 0.00 | 80 | 1006.9 |
| 20260508160245 | 37 | 0 | 0.0 | 0.0 | 0.00 | 0.00 | 0.00 | 82 | 1007.3 |
| 20260508154741 | 36 | 0 | 0.0 | 0.0 | 0.00 | 0.00 | 0.00 | 82 | 1007.4 |
| 20260508153237 | 36 | 0 | 0.0 | 0.0 | 0.00 | 0.00 | 0.00 | 83 | 1007.5 |
| 20260508151733 | 36 | 0 | 0.0 | 0.0 | 0.00 | 0.00 | 0.00 | 83 | 1007.8 |
| 20260508150229 | 36 | 0 | 0.0 | 0.0 | 0.00 | 0.00 | 0.00 | 82 | 1007.9 |
| 20260508144723 | 36 | 0 | 0.0 | 0.0 | 0.00 | 0.00 | 0.00 | 83 | 1008.1 |
| 20260508143219 | 35 | 0 | 0.0 | 0.0 | 0.00 | 0.00 | 0.00 | 83 | 1008.3 |
| 20260508141713 | 35 | 0 | 0.0 | 0.0 | 0.00 | 0.00 | 0.00 | 82 | 1008.4 |